| time (UTC) | temp F | wind direction | speed MPH | gust MPH | rain 1hr in | rain 24hr in | rain mn in | humidity % | barometer mb |
| 20260506214814 | 66 | 146 | 3.0 | 7.0 | 0.00 | 0.00 | 0.00 | 81 | 1013.0 |
| 20260506214311 | 65 | 349 | 2.0 | 8.0 | 0.00 | 0.00 | 0.00 | 82 | 1013.0 |
| 20260506213810 | 65 | 289 | 4.0 | 12.0 | 0.00 | 0.00 | 0.00 | 81 | 1012.7 |
| 20260506213306 | 67 | 23 | 6.0 | 7.0 | 0.00 | 0.00 | 0.00 | 80 | 1013.0 |
| 20260506212804 | 66 | 112 | 3.0 | 10.0 | 0.00 | 0.00 | 0.00 | 80 | 1012.7 |
| 20260506212259 | 66 | 353 | 3.0 | 8.0 | 0.00 | 0.00 | 0.00 | 80 | 1012.8 |
| 20260506211754 | 67 | 72 | 2.0 | 8.0 | 0.00 | 0.00 | 0.00 | 79 | 1012.7 |
| 20260506211251 | 68 | 76 | 5.0 | 10.0 | 0.00 | 0.00 | 0.00 | 78 | 1012.7 |
| 20260506210748 | 69 | 10 | 3.0 | 11.0 | 0.00 | 0.00 | 0.00 | 77 | 1012.8 |
| 20260506210245 | 69 | 62 | 4.0 | 9.0 | 0.00 | 0.00 | 0.00 | 77 | 1012.8 |
| 20260506205742 | 71 | 341 | 5.0 | 15.0 | 0.00 | 0.00 | 0.00 | 76 | 1012.7 |
| 20260506205238 | 70 | 105 | 2.0 | 6.0 | 0.00 | 0.00 | 0.00 | 77 | 1013.0 |
| 20260506204735 | 70 | 9 | 5.0 | 10.0 | 0.00 | 0.00 | 0.00 | 77 | 1012.7 |
| 20260506204232 | 70 | 18 | 4.0 | 11.0 | 0.00 | 0.00 | 0.00 | 76 | 1012.8 |
| 20260506203730 | 71 | 11 | 5.0 | 8.0 | 0.00 | 0.00 | 0.00 | 78 | 1012.7 |
| 20260506203221 | 72 | 43 | 7.0 | 9.0 | 0.00 | 0.00 | 0.00 | 76 | 1013.1 |
| 20260506202719 | 73 | 73 | 2.0 | 6.0 | 0.00 | 0.00 | 0.00 | 76 | 1013.1 |
| 20260506202215 | 72 | 171 | 2.0 | 7.0 | 0.00 | 0.00 | 0.00 | 75 | 1013.0 |
| 20260506201712 | 73 | 325 | 3.0 | 6.0 | 0.00 | 0.00 | 0.00 | 78 | 1013.1 |
| 20260506201209 | 72 | 5 | 3.0 | 10.0 | 0.00 | 0.00 | 0.00 | 77 | 1013.3 |
| 20260506200706 | 73 | 36 | 2.0 | 10.0 | 0.00 | 0.00 | 0.00 | 78 | 1013.1 |
| 20260506200203 | 73 | 56 | 2.0 | 8.0 | 0.00 | 0.00 | 0.00 | 76 | 1013.0 |
| 20260506195659 | 72 | 324 | 2.0 | 10.0 | 0.00 | 0.00 | 0.00 | 78 | 1012.8 |
| 20260506195155 | 73 | 75 | 5.0 | 8.0 | 0.00 | 0.00 | 0.00 | 77 | 1012.9 |
| 20260506194653 | 73 | 355 | 3.0 | 6.0 | 0.00 | 0.00 | 0.00 | 76 | 1012.9 |
| 20260506194149 | 73 | 102 | 2.0 | 9.0 | 0.00 | 0.00 | 0.00 | 78 | 1012.7 |
| 20260506193647 | 74 | 20 | 7.0 | 12.0 | 0.00 | 0.00 | 0.00 | 76 | 1012.5 |
| 20260506193144 | 75 | 49 | 3.0 | 9.0 | 0.00 | 0.00 | 0.00 | 76 | 1012.5 |
| 20260506192640 | 75 | 86 | 3.0 | 13.0 | 0.00 | 0.00 | 0.00 | 79 | 1012.5 |
| 20260506192136 | 75 | 357 | 0.0 | 10.0 | 0.00 | 0.00 | 0.00 | 80 | 1012.5 |
| 20260506191634 | 76 | 74 | 4.0 | 8.0 | 0.00 | 0.00 | 0.00 | 79 | 1012.5 |
| 20260506191129 | 78 | 36 | 2.0 | 10.0 | 0.00 | 0.00 | 0.00 | 75 | 1012.3 |
| 20260506190627 | 78 | 355 | 3.0 | 4.0 | 0.00 | 0.00 | 0.00 | 75 | 1012.6 |
| 20260506190124 | 78 | 49 | 5.0 | 7.0 | 0.00 | 0.00 | 0.00 | 76 | 1012.7 |
| 20260506185621 | 79 | 6 | 0.0 | 3.0 | 0.00 | 0.00 | 0.00 | 78 | 1012.6 |
| 20260506185117 | 80 | 349 | 5.0 | 5.0 | 0.00 | 0.00 | 0.00 | 76 | 1012.5 |
| 20260506184614 | 80 | 358 | 4.0 | 5.0 | 0.00 | 0.00 | 0.00 | 76 | 1012.4 |
| 20260506184112 | 80 | 95 | 2.0 | 7.0 | 0.00 | 0.00 | 0.00 | 74 | 1012.5 |
| 20260506183608 | 80 | 98 | 0.0 | 6.0 | 0.00 | 0.00 | 0.00 | 75 | 1012.5 |
| 20260506183104 | 80 | 336 | 2.0 | 5.0 | 0.00 | 0.00 | 0.00 | 77 | 1012.3 |
| 20260506182602 | 79 | 75 | 2.0 | 4.0 | 0.00 | 0.00 | 0.00 | 76 | 1012.3 |
| 20260506182059 | 78 | 85 | 4.0 | 6.0 | 0.00 | 0.00 | 0.00 | 76 | 1012.2 |
| 20260506181557 | 78 | 57 | 4.0 | 6.0 | 0.00 | 0.00 | 0.00 | 77 | 1012.4 |
| 20260506181053 | 78 | 8 | 3.0 | 6.0 | 0.00 | 0.00 | 0.00 | 76 | 1012.5 |
| 20260506180550 | 78 | 39 | 3.0 | 4.0 | 0.00 | 0.00 | 0.00 | 78 | 1012.4 |
| 20260506180047 | 77 | 57 | 2.0 | 8.0 | 0.00 | 0.00 | 0.00 | 79 | 1012.7 |
| 20260506175543 | 76 | 87 | 4.0 | 6.0 | 0.00 | 0.00 | 0.00 | 78 | 1012.5 |
| 20260506175039 | 76 | 67 | 3.0 | 5.0 | 0.00 | 0.00 | 0.00 | 79 | 1012.3 |
| 20260506174538 | 75 | 14 | 0.0 | 8.0 | 0.00 | 0.00 | 0.00 | 80 | 1012.4 |
| 20260506174034 | 74 | 26 | 3.0 | 5.0 | 0.00 | 0.00 | 0.00 | 80 | 1012.5 |
| 20260506173532 | 73 | 71 | 3.0 | 4.0 | 0.00 | 0.00 | 0.00 | 80 | 1012.5 |
| 20260506173028 | 74 | 344 | 3.0 | 6.0 | 0.00 | 0.00 | 0.00 | 77 | 1012.5 |
| 20260506172526 | 74 | 29 | 1.0 | 6.0 | 0.00 | 0.00 | 0.00 | 81 | 1012.5 |
| 20260506172022 | 73 | 0 | 2.0 | 5.0 | 0.00 | 0.00 | 0.00 | 80 | 1012.6 |
| 20260506171519 | 72 | 150 | 2.0 | 7.0 | 0.00 | 0.00 | 0.00 | 83 | 1012.8 |
| 20260506171017 | 70 | 17 | 2.0 | 9.0 | 0.00 | 0.00 | 0.00 | 83 | 1012.8 |
| 20260506170514 | 71 | 19 | 4.0 | 7.0 | 0.00 | 0.00 | 0.00 | 81 | 1012.9 |
| 20260506170006 | 70 | 22 | 4.0 | 5.0 | 0.00 | 0.00 | 0.00 | 82 | 1012.7 |
| 20260506165504 | 70 | 328 | 4.0 | 5.0 | 0.00 | 0.00 | 0.00 | 84 | 1012.9 |
| 20260506165000 | 69 | 57 | 3.0 | 7.0 | 0.00 | 0.00 | 0.00 | 84 | 1013.0 |
| 20260506164457 | 68 | 69 | 3.0 | 7.0 | 0.00 | 0.00 | 0.00 | 86 | 1013.0 |
| 20260506163954 | 68 | 78 | 3.0 | 7.0 | 0.00 | 0.00 | 0.00 | 87 | 1013.2 |
| 20260506163449 | 66 | 25 | 3.0 | 6.0 | 0.00 | 0.00 | 0.00 | 88 | 1013.1 |
| 20260506162944 | 66 | 13 | 4.0 | 8.0 | 0.00 | 0.00 | 0.00 | 88 | 1013.3 |
| 20260506162442 | 67 | 50 | 5.0 | 8.0 | 0.00 | 0.00 | 0.00 | 89 | 1013.6 |
| 20260506161939 | 67 | 322 | 4.0 | 10.0 | 0.00 | 0.00 | 0.00 | 89 | 1013.9 |
| 20260506161437 | 68 | 22 | 5.0 | 10.0 | 0.00 | 0.00 | 0.00 | 89 | 1013.8 |
| 20260506160934 | 68 | 68 | 2.0 | 8.0 | 0.00 | 0.00 | 0.00 | 90 | 1013.9 |
| 20260506160432 | 69 | 64 | 3.0 | 9.0 | 0.00 | 0.00 | 0.00 | 89 | 1014.1 |
| 20260506155929 | 70 | 59 | 4.0 | 9.0 | 0.00 | 0.00 | 0.00 | 88 | 1013.7 |
| 20260506155426 | 72 | 345 | 4.0 | 9.0 | 0.00 | 0.00 | 0.00 | 87 | 1013.5 |
| 20260506153548 | 77 | 0 | 0.0 | 2.0 | 0.00 | 0.00 | 0.00 | 89 | 1012.8 |
| 20260506153045 | 77 | 66 | 2.0 | 2.0 | 0.00 | 0.00 | 0.00 | 89 | 1012.9 |
| 20260506152542 | 77 | 14 | 1.0 | 2.0 | 0.00 | 0.00 | 0.00 | 89 | 1012.8 |
| 20260506152040 | 76 | 15 | 0.0 | 2.0 | 0.00 | 0.00 | 0.00 | 89 | 1012.5 |
| 20260506151538 | 77 | 14 | 0.0 | 3.0 | 0.00 | 0.00 | 0.00 | 89 | 1012.3 |
| 20260506151035 | 77 | 0 | 0.0 | 2.0 | 0.00 | 0.00 | 0.00 | 89 | 1012.3 |
| 20260506150531 | 77 | 66 | 1.0 | 2.0 | 0.00 | 0.00 | 0.00 | 90 | 1012.0 |
| 20260506150028 | 76 | 228 | 2.0 | 3.0 | 0.00 | 0.00 | 0.00 | 90 | 1011.9 |
| 20260506145525 | 76 | 188 | 0.0 | 3.0 | 0.00 | 0.00 | 0.00 | 90 | 1011.9 |
| 20260506145023 | 77 | 99 | 0.0 | 3.0 | 0.00 | 0.00 | 0.00 | 90 | 1011.6 |
| 20260506144519 | 77 | 117 | 2.0 | 2.0 | 0.00 | 0.00 | 0.00 | 90 | 1011.4 |
| 20260506144017 | 77 | 229 | 0.0 | 2.0 | 0.00 | 0.00 | 0.00 | 90 | 1011.8 |
| 20260506143514 | 76 | 148 | 2.0 | 4.0 | 0.00 | 0.00 | 0.00 | 90 | 1011.8 |
| 20260506143013 | 77 | 180 | 0.0 | 3.0 | 0.00 | 0.00 | 0.00 | 91 | 1011.7 |
| 20260506142510 | 76 | 245 | 4.0 | 5.0 | 0.00 | 0.00 | 0.00 | 91 | 1011.2 |
| 20260506142008 | 76 | 180 | 0.0 | 4.0 | 0.00 | 0.00 | 0.00 | 91 | 1010.9 |
| 20260506141505 | 76 | 209 | 2.0 | 5.0 | 0.00 | 0.00 | 0.00 | 91 | 1011.2 |
| 20260506141004 | 75 | 166 | 2.0 | 4.0 | 0.00 | 0.00 | 0.00 | 92 | 1011.6 |
| 20260506140500 | 75 | 132 | 4.0 | 4.0 | 0.00 | 0.00 | 0.00 | 92 | 1011.5 |
| 20260506135957 | 75 | 229 | 5.0 | 5.0 | 0.00 | 0.00 | 0.00 | 92 | 1011.7 |
| 20260506135454 | 75 | 263 | 1.0 | 3.0 | 0.00 | 0.00 | 0.00 | 93 | 1011.7 |
| 20260506134950 | 75 | 202 | 2.0 | 3.0 | 0.00 | 0.00 | 0.00 | 93 | 1011.2 |
| 20260506134446 | 75 | 111 | 0.0 | 3.0 | 0.00 | 0.00 | 0.00 | 93 | 1010.5 |
| 20260506133943 | 75 | 246 | 0.0 | 4.0 | 0.00 | 0.00 | 0.00 | 94 | 1010.7 |
| 20260506133440 | 75 | 185 | 1.0 | 3.0 | 0.00 | 0.00 | 0.00 | 94 | 1010.6 |
| 20260506132937 | 75 | 134 | 4.0 | 4.0 | 0.00 | 0.00 | 0.00 | 94 | 1010.7 |
| 20260506132434 | 74 | 245 | 0.0 | 3.0 | 0.00 | 0.00 | 0.00 | 94 | 1010.6 |
| 20260506131932 | 74 | 162 | 2.0 | 4.0 | 0.00 | 0.00 | 0.00 | 94 | 1010.6 |
| 20260506131428 | 74 | 237 | 2.0 | 2.0 | 0.00 | 0.00 | 0.00 | 94 | 1010.6 |
| 20260506130925 | 74 | 180 | 0.0 | 3.0 | 0.00 | 0.00 | 0.00 | 94 | 1010.6 |
| 20260506130421 | 74 | 81 | 0.0 | 4.0 | 0.00 | 0.00 | 0.00 | 94 | 1010.4 |
| 20260506125920 | 74 | 245 | 2.0 | 4.0 | 0.00 | 0.00 | 0.00 | 94 | 1010.4 |
| 20260506125418 | 74 | 124 | 0.0 | 4.0 | 0.00 | 0.00 | 0.00 | 94 | 1010.3 |
| 20260506124916 | 74 | 270 | 0.0 | 1.0 | 0.00 | 0.00 | 0.00 | 94 | 1010.2 |
| 20260506124413 | 74 | 84 | 3.0 | 3.0 | 0.00 | 0.00 | 0.00 | 95 | 1010.4 |
| 20260506123911 | 73 | 117 | 3.0 | 4.0 | 0.00 | 0.00 | 0.00 | 94 | 1010.3 |
| 20260506123408 | 74 | 74 | 0.0 | 2.0 | 0.00 | 0.00 | 0.00 | 94 | 1010.2 |
| 20260506122906 | 74 | 166 | 0.0 | 1.0 | 0.00 | 0.00 | 0.00 | 94 | 1010.4 |
| 20260506122402 | 74 | 120 | 0.0 | 2.0 | 0.00 | 0.00 | 0.00 | 94 | 1010.3 |
| 20260506121901 | 73 | 81 | 0.0 | 2.0 | 0.00 | 0.00 | 0.00 | 94 | 1010.4 |
| 20260506121357 | 74 | 66 | 0.0 | 1.0 | 0.00 | 0.00 | 0.00 | 94 | 1010.4 |
| 20260506120854 | 74 | 195 | 0.0 | 0.0 | 0.00 | 0.00 | 0.00 | 94 | 1010.5 |
| 20260506120352 | 74 | 157 | 0.0 | 0.0 | 0.00 | 0.00 | 0.00 | 94 | 1010.5 |
| 20260506115849 | 74 | 157 | 0.0 | 0.0 | 0.00 | 0.00 | 0.00 | 94 | 1010.2 |
| 20260506115347 | 74 | 99 | 0.0 | 0.0 | 0.00 | 0.00 | 0.00 | 94 | 1010.0 |
| 20260506114845 | 74 | 180 | 0.0 | 1.0 | 0.00 | 0.00 | 0.00 | 94 | 1010.2 |
| 20260506114342 | 74 | 97 | 0.0 | 0.0 | 0.00 | 0.00 | 0.00 | 94 | 1010.2 |
| 20260506113841 | 74 | 123 | 2.0 | 2.0 | 0.00 | 0.00 | 0.00 | 94 | 1010.3 |
| 20260506113338 | 74 | 106 | 0.0 | 1.0 | 0.00 | 0.00 | 0.00 | 94 | 1010.1 |
| 20260506112834 | 74 | 99 | 0.0 | 1.0 | 0.00 | 0.00 | 0.00 | 93 | 1010.2 |
| 20260506112332 | 74 | 270 | 0.0 | 0.0 | 0.00 | 0.00 | 0.00 | 93 | 1010.1 |
| 20260506111829 | 74 | 180 | 0.0 | 0.0 | 0.00 | 0.00 | 0.00 | 93 | 1010.2 |
| 20260506111327 | 74 | 175 | 0.0 | 3.0 | 0.00 | 0.00 | 0.00 | 93 | 1010.0 |
| 20260506110824 | 74 | 172 | 0.0 | 2.0 | 0.00 | 0.00 | 0.00 | 93 | 1010.2 |
| 20260506110321 | 74 | 225 | 0.0 | 2.0 | 0.00 | 0.00 | 0.00 | 93 | 1010.2 |
| 20260506105818 | 74 | 195 | 0.0 | 1.0 | 0.00 | 0.00 | 0.00 | 93 | 1009.9 |
| 20260506105315 | 74 | 188 | 0.0 | 3.0 | 0.00 | 0.00 | 0.00 | 93 | 1010.1 |
| 20260506104812 | 74 | 270 | 0.0 | 0.0 | 0.00 | 0.00 | 0.00 | 93 | 1009.9 |
| 20260506104310 | 74 | 261 | 0.0 | 0.0 | 0.00 | 0.00 | 0.00 | 93 | 1009.9 |
| 20260506103807 | 74 | 186 | 0.0 | 4.0 | 0.00 | 0.00 | 0.00 | 93 | 1009.8 |
| 20260506103305 | 74 | 222 | 3.0 | 5.0 | 0.00 | 0.00 | 0.00 | 93 | 1009.7 |
| 20260506102802 | 74 | 215 | 1.0 | 6.0 | 0.00 | 0.00 | 0.00 | 94 | 1009.4 |
| 20260506102300 | 74 | 173 | 3.0 | 7.0 | 0.00 | 0.00 | 0.00 | 93 | 1009.7 |
| 20260506101757 | 74 | 135 | 0.0 | 4.0 | 0.00 | 0.00 | 0.00 | 93 | 1009.4 |
| 20260506101253 | 74 | 180 | 0.0 | 8.0 | 0.00 | 0.00 | 0.00 | 93 | 1009.7 |
| 20260506100751 | 74 | 97 | 1.0 | 8.0 | 0.00 | 0.00 | 0.00 | 93 | 1009.6 |
| 20260506100249 | 74 | 221 | 2.0 | 6.0 | 0.00 | 0.00 | 0.00 | 93 | 1009.5 |
| 20260506095747 | 74 | 246 | 0.0 | 4.0 | 0.00 | 0.00 | 0.00 | 93 | 1009.6 |
| 20260506095244 | 74 | 206 | 2.0 | 7.0 | 0.00 | 0.00 | 0.00 | 93 | 1009.4 |
| 20260506094740 | 74 | 218 | 3.0 | 5.0 | 0.00 | 0.00 | 0.00 | 93 | 1009.3 |
| 20260506094239 | 74 | 270 | 5.0 | 5.0 | 0.00 | 0.00 | 0.00 | 93 | 1009.5 |
| 20260506093737 | 74 | 227 | 7.0 | 8.0 | 0.00 | 0.00 | 0.00 | 93 | 1009.4 |
| 20260506093234 | 74 | 128 | 0.0 | 5.0 | 0.00 | 0.00 | 0.00 | 93 | 1009.4 |
| 20260506092732 | 74 | 156 | 5.0 | 10.0 | 0.00 | 0.00 | 0.00 | 93 | 1009.4 |
| 20260506092229 | 74 | 190 | 2.0 | 7.0 | 0.00 | 0.00 | 0.00 | 93 | 1009.2 |
| 20260506091726 | 74 | 229 | 4.0 | 9.0 | 0.00 | 0.00 | 0.00 | 93 | 1009.1 |
| 20260506091224 | 74 | 180 | 0.0 | 7.0 | 0.00 | 0.00 | 0.00 | 93 | 1009.1 |
| 20260506090722 | 74 | 222 | 0.0 | 9.0 | 0.00 | 0.00 | 0.00 | 93 | 1009.1 |
| 20260506090218 | 74 | 217 | 2.0 | 4.0 | 0.00 | 0.00 | 0.00 | 93 | 1009.0 |
| 20260506085715 | 74 | 254 | 2.0 | 8.0 | 0.00 | 0.00 | 0.00 | 93 | 1008.9 |
| 20260506085211 | 74 | 170 | 3.0 | 10.0 | 0.00 | 0.00 | 0.00 | 93 | 1008.8 |
| 20260506084708 | 74 | 241 | 3.0 | 9.0 | 0.00 | 0.00 | 0.00 | 93 | 1009.1 |
| 20260506084204 | 74 | 243 | 6.0 | 7.0 | 0.00 | 0.00 | 0.00 | 93 | 1009.0 |
| 20260506083701 | 74 | 162 | 1.0 | 8.0 | 0.00 | 0.00 | 0.00 | 94 | 1009.2 |
| 20260506083159 | 75 | 245 | 2.0 | 7.0 | 0.00 | 0.00 | 0.00 | 94 | 1009.0 |
| 20260506082656 | 74 | 180 | 4.0 | 8.0 | 0.00 | 0.00 | 0.00 | 93 | 1009.1 |
| 20260506082156 | 74 | 135 | 6.0 | 6.0 | 0.00 | 0.00 | 0.00 | 93 | 1009.0 |
| 20260506081655 | 75 | 185 | 3.0 | 6.0 | 0.00 | 0.00 | 0.00 | 93 | 1009.3 |
| 20260506081152 | 74 | 180 | 0.0 | 11.0 | 0.00 | 0.00 | 0.00 | 93 | 1009.1 |
| 20260506080650 | 75 | 229 | 9.0 | 10.0 | 0.00 | 0.00 | 0.00 | 93 | 1009.2 |
| 20260506080146 | 75 | 198 | 0.0 | 7.0 | 0.00 | 0.00 | 0.00 | 93 | 1009.2 |
| 20260506073130 | 75 | 99 | 0.0 | 8.0 | 0.00 | 0.00 | 0.00 | 92 | 1009.5 |
| 20260506072626 | 74 | 202 | 5.0 | 10.0 | 0.00 | 0.00 | 0.00 | 92 | 1009.4 |
| 20260506072125 | 75 | 117 | 3.0 | 8.0 | 0.00 | 0.00 | 0.00 | 92 | 1009.6 |
| 20260506071622 | 75 | 198 | 1.0 | 11.0 | 0.00 | 0.00 | 0.00 | 92 | 1009.6 |
| 20260506071120 | 75 | 156 | 8.0 | 8.0 | 0.00 | 0.00 | 0.00 | 92 | 1009.5 |
| 20260506070616 | 75 | 170 | 3.0 | 9.0 | 0.00 | 0.00 | 0.00 | 92 | 1009.5 |
| 20260506070114 | 75 | 236 | 3.0 | 11.0 | 0.00 | 0.00 | 0.00 | 92 | 1009.6 |
| 20260506062051 | 75 | 160 | 4.0 | 10.0 | 0.00 | 0.00 | 0.00 | 92 | 1009.6 |
| 20260506061546 | 75 | 209 | 0.0 | 8.0 | 0.00 | 0.00 | 0.00 | 92 | 1009.6 |
| 20260506061044 | 75 | 225 | 4.0 | 9.0 | 0.00 | 0.00 | 0.00 | 92 | 1009.4 |
| 20260506060543 | 75 | 159 | 5.0 | 10.0 | 0.00 | 0.00 | 0.00 | 92 | 1009.5 |
| 20260506051012 | 75 | 174 | 3.0 | 11.0 | 0.00 | 0.00 | 0.00 | 91 | 1009.5 |
| 20260506050509 | 75 | 192 | 4.0 | 13.0 | 0.00 | 0.00 | 0.00 | 91 | 1009.8 |
| 20260506045000 | 76 | 208 | 2.0 | 7.0 | 0.00 | 0.00 | 0.00 | 91 | 1009.8 |
| 20260506044458 | 76 | 200 | 5.0 | 8.0 | 0.00 | 0.00 | 0.00 | 91 | 1009.7 |
| 20260506043954 | 76 | 183 | 2.0 | 7.0 | 0.00 | 0.00 | 0.00 | 91 | 1009.4 |
| 20260506043451 | 75 | 191 | 3.0 | 11.0 | 0.00 | 0.00 | 0.00 | 91 | 1009.9 |
| 20260506042949 | 75 | 226 | 10.0 | 15.0 | 0.00 | 0.00 | 0.00 | 92 | 1009.5 |
| 20260506042448 | 76 | 119 | 3.0 | 10.0 | 0.00 | 0.00 | 0.00 | 92 | 1009.7 |
| 20260506041946 | 76 | 213 | 3.0 | 11.0 | 0.00 | 0.00 | 0.00 | 92 | 1009.7 |
| 20260506041444 | 76 | 140 | 4.0 | 7.0 | 0.00 | 0.00 | 0.00 | 92 | 1009.3 |
| 20260506040941 | 76 | 138 | 3.0 | 9.0 | 0.00 | 0.00 | 0.00 | 92 | 1009.6 |
| 20260506040438 | 76 | 186 | 4.0 | 4.0 | 0.00 | 0.00 | 0.00 | 91 | 1009.3 |
| 20260506035934 | 76 | 180 | 1.0 | 5.0 | 0.00 | 0.00 | 0.00 | 92 | 1009.4 |
| 20260506035432 | 76 | 179 | 5.0 | 6.0 | 0.00 | 0.00 | 0.00 | 92 | 1009.3 |
| 20260506034928 | 76 | 200 | 3.0 | 4.0 | 0.00 | 0.00 | 0.00 | 91 | 1009.2 |
| 20260506034426 | 76 | 240 | 0.0 | 5.0 | 0.00 | 0.00 | 0.00 | 91 | 1009.1 |
| 20260506033923 | 76 | 178 | 4.0 | 4.0 | 0.00 | 0.00 | 0.00 | 91 | 1009.3 |
| 20260506033420 | 76 | 225 | 5.0 | 6.0 | 0.00 | 0.00 | 0.00 | 91 | 1009.0 |
| 20260506032917 | 76 | 165 | 3.0 | 4.0 | 0.00 | 0.00 | 0.00 | 91 | 1009.0 |
| 20260506032414 | 76 | 261 | 0.0 | 3.0 | 0.00 | 0.00 | 0.00 | 91 | 1008.9 |
| 20260506031910 | 76 | 208 | 3.0 | 7.0 | 0.00 | 0.00 | 0.00 | 91 | 1008.8 |
| 20260506031408 | 76 | 255 | 1.0 | 5.0 | 0.00 | 0.00 | 0.00 | 90 | 1008.8 |
| 20260506030905 | 76 | 203 | 7.0 | 7.0 | 0.00 | 0.00 | 0.00 | 90 | 1008.7 |
| 20260506030403 | 76 | 119 | 6.0 | 6.0 | 0.00 | 0.00 | 0.00 | 90 | 1008.6 |
| 20260506025859 | 76 | 201 | 3.0 | 6.0 | 0.00 | 0.00 | 0.00 | 89 | 1008.6 |
| 20260506025356 | 77 | 262 | 0.0 | 7.0 | 0.00 | 0.00 | 0.00 | 89 | 1008.5 |
| 20260506024853 | 77 | 176 | 0.0 | 8.0 | 0.00 | 0.00 | 0.00 | 89 | 1008.5 |
| 20260506024350 | 77 | 174 | 1.0 | 7.0 | 0.00 | 0.00 | 0.00 | 89 | 1008.5 |
| 20260506023846 | 77 | 219 | 0.0 | 7.0 | 0.00 | 0.00 | 0.00 | 88 | 1008.3 |
| 20260506023343 | 77 | 180 | 3.0 | 7.0 | 0.00 | 0.00 | 0.00 | 87 | 1008.3 |
| 20260506022840 | 77 | 194 | 3.0 | 7.0 | 0.00 | 0.00 | 0.00 | 87 | 1008.2 |
| 20260506022338 | 77 | 174 | 3.0 | 5.0 | 0.00 | 0.00 | 0.00 | 87 | 1008.0 |
| 20260506021836 | 77 | 180 | 2.0 | 2.0 | 0.00 | 0.00 | 0.00 | 87 | 1008.0 |
| 20260506021332 | 77 | 187 | 1.0 | 4.0 | 0.00 | 0.00 | 0.00 | 86 | 1007.9 |
| 20260506020829 | 77 | 220 | 2.0 | 3.0 | 0.00 | 0.00 | 0.00 | 86 | 1007.6 |
| 20260506020327 | 77 | 229 | 3.0 | 7.0 | 0.00 | 0.00 | 0.00 | 86 | 1007.7 |
| 20260506015824 | 77 | 225 | 4.0 | 4.0 | 0.00 | 0.00 | 0.00 | 86 | 1007.7 |
| 20260506015321 | 78 | 173 | 0.0 | 4.0 | 0.00 | 0.00 | 0.00 | 86 | 1007.7 |
| 20260506014818 | 78 | 228 | 2.0 | 5.0 | 0.00 | 0.00 | 0.00 | 86 | 1007.6 |
| 20260506014315 | 78 | 157 | 0.0 | 5.0 | 0.00 | 0.00 | 0.00 | 86 | 1007.4 |
| 20260506013812 | 78 | 90 | 1.0 | 2.0 | 0.00 | 0.00 | 0.00 | 86 | 1007.3 |
| 20260506013309 | 78 | 212 | 0.0 | 2.0 | 0.00 | 0.00 | 0.00 | 85 | 1007.3 |
| 20260506012805 | 78 | 113 | 2.0 | 3.0 | 0.00 | 0.00 | 0.00 | 85 | 1007.2 |
| 20260506012307 | 78 | 106 | 0.0 | 2.0 | 0.00 | 0.00 | 0.00 | 85 | 1007.3 |
| 20260506011759 | 79 | 90 | 0.0 | 2.0 | 0.00 | 0.00 | 0.00 | 84 | 1007.5 |
| 20260506011256 | 79 | 165 | 0.0 | 3.0 | 0.00 | 0.00 | 0.00 | 83 | 1007.3 |
| 20260506010754 | 79 | 106 | 0.0 | 1.0 | 0.00 | 0.00 | 0.00 | 83 | 1007.5 |
| 20260506010251 | 80 | 187 | 1.0 | 2.0 | 0.00 | 0.00 | 0.00 | 82 | 1007.5 |
| 20260506005748 | 80 | 105 | 2.0 | 3.0 | 0.00 | 0.00 | 0.00 | 82 | 1007.4 |
| 20260506005245 | 80 | 246 | 1.0 | 3.0 | 0.00 | 0.00 | 0.00 | 81 | 1007.7 |
| 20260506004741 | 80 | 187 | 2.0 | 2.0 | 0.00 | 0.00 | 0.00 | 80 | 1007.6 |
| 20260506004239 | 81 | 203 | 0.0 | 2.0 | 0.00 | 0.00 | 0.00 | 80 | 1007.4 |
| 20260506003734 | 81 | 265 | 0.0 | 3.0 | 0.00 | 0.00 | 0.00 | 79 | 1007.5 |
| 20260506003231 | 81 | 155 | 3.0 | 3.0 | 0.00 | 0.00 | 0.00 | 79 | 1007.4 |
| 20260506002727 | 81 | 168 | 0.0 | 6.0 | 0.00 | 0.00 | 0.00 | 78 | 1007.3 |
| 20260506002223 | 81 | 175 | 2.0 | 3.0 | 0.00 | 0.00 | 0.00 | 78 | 1007.3 |
| 20260506001719 | 81 | 206 | 1.0 | 3.0 | 0.00 | 0.00 | 0.00 | 78 | 1007.3 |
| 20260506001217 | 82 | 194 | 0.0 | 6.0 | 0.00 | 0.00 | 0.00 | 78 | 1007.3 |
| 20260506000714 | 82 | 127 | 0.0 | 4.0 | 0.00 | 0.00 | 0.00 | 78 | 1007.4 |
| 20260506000212 | 82 | 253 | 2.0 | 4.0 | 0.00 | 0.00 | 0.00 | 78 | 1007.2 |
| 20260505235709 | 82 | 160 | 1.0 | 4.0 | 0.00 | 0.00 | 0.00 | 77 | 1007.3 |
| 20260505235206 | 82 | 150 | 3.0 | 5.0 | 0.00 | 0.00 | 0.00 | 76 | 1007.2 |
| 20260505234703 | 83 | 262 | 0.0 | 4.0 | 0.00 | 0.00 | 0.00 | 76 | 1007.0 |
| 20260505234200 | 82 | 206 | 2.0 | 6.0 | 0.00 | 0.00 | 0.00 | 74 | 1007.0 |
| 20260505233656 | 83 | 157 | 1.0 | 8.0 | 0.00 | 0.00 | 0.00 | 75 | 1007.0 |
| 20260505233154 | 83 | 233 | 4.0 | 6.0 | 0.00 | 0.00 | 0.00 | 74 | 1006.7 |
| 20260505232652 | 83 | 180 | 0.0 | 7.0 | 0.00 | 0.00 | 0.00 | 74 | 1007.1 |
| 20260505232149 | 83 | 156 | 2.0 | 6.0 | 0.00 | 0.00 | 0.00 | 74 | 1006.9 |
| 20260505231646 | 82 | 180 | 1.0 | 9.0 | 0.00 | 0.00 | 0.00 | 76 | 1007.0 |
| 20260505231145 | 82 | 238 | 5.0 | 6.0 | 0.00 | 0.00 | 0.00 | 75 | 1007.0 |
| 20260505230642 | 82 | 237 | 4.0 | 11.0 | 0.00 | 0.00 | 0.00 | 74 | 1007.1 |
| 20260505230139 | 82 | 218 | 5.0 | 5.0 | 0.00 | 0.00 | 0.00 | 75 | 1006.8 |
| 20260505225635 | 82 | 219 | 7.0 | 8.0 | 0.00 | 0.00 | 0.00 | 75 | 1007.0 |
| 20260505225131 | 82 | 232 | 0.0 | 9.0 | 0.00 | 0.00 | 0.00 | 75 | 1007.0 |
| 20260505224628 | 82 | 206 | 4.0 | 9.0 | 0.00 | 0.00 | 0.00 | 75 | 1007.1 |
| 20260505224125 | 82 | 213 | 0.0 | 8.0 | 0.00 | 0.00 | 0.00 | 75 | 1007.0 |
| 20260505223623 | 82 | 214 | 4.0 | 11.0 | 0.00 | 0.00 | 0.00 | 75 | 1007.1 |
| 20260505223119 | 83 | 228 | 7.0 | 12.0 | 0.00 | 0.00 | 0.00 | 73 | 1006.9 |
| 20260505222615 | 83 | 180 | 2.0 | 6.0 | 0.00 | 0.00 | 0.00 | 73 | 1007.0 |
| 20260505222111 | 83 | 230 | 5.0 | 10.0 | 0.00 | 0.00 | 0.00 | 73 | 1006.8 |
| 20260505221608 | 83 | 265 | 0.0 | 8.0 | 0.00 | 0.00 | 0.00 | 73 | 1006.8 |
| 20260505221105 | 84 | 184 | 4.0 | 11.0 | 0.00 | 0.00 | 0.00 | 71 | 1006.7 |
| 20260505220602 | 84 | 203 | 7.0 | 11.0 | 0.00 | 0.00 | 0.00 | 71 | 1006.8 |
| 20260505220100 | 84 | 188 | 1.0 | 9.0 | 0.00 | 0.00 | 0.00 | 72 | 1007.0 |
| 20260505215558 | 83 | 211 | 6.0 | 6.0 | 0.00 | 0.00 | 0.00 | 72 | 1007.2 |
| 20260505215055 | 84 | 237 | 5.0 | 10.0 | 0.00 | 0.00 | 0.00 | 72 | 1007.1 |